Weather in Almazar

Uzbekistan     41°18′31″N   69°14′41″E
temp.,
°C
wind,
m/s
gust,
m/s
humid.,
%
clouds,
%
prec.,
mm/h
press.,
hPa
HPBL,
m
18 may, wed
wed1823:00+24ese353187 0.0 1008112
02:00+23sse1140100 0.0 100859
05:00+21ne244031 0.1 100880
08:00+24nne2338100 0.4 1010213
11:00+27se4535100 0.5 1011417
14:00+28s2429100 0.0 10111294
17:00+29se442696 0.0 10111397
20:00+25se343799 0.0 1011154
19 may, thu
thu1923:00+23se2239100 0.0 101265
02:00+22ne223797 0.0 101232
05:00+21ne23418 0.0 101261
08:00+25e22330 0.0 1013256
11:00+29wnw22250 0.0 10131483
14:00+32nnw4322100 0.0 10102795
17:00+31n6426100 0.0 10092295
20:00+27nnw5835100 0.1 1009566
20 may, fri
fri2023:00+24nne2347100 0.1 1009194
02:00+22e1153100 0.0 100887
05:00+22sse1152100 0.0 100860
08:00+23s4550100 0.0 1009408
11:00+28ssw4437100 0.0 1008890
14:00+31sw322889 0.0 10061604
17:00+31sw2226100 0.0 10052234
20:00+25s464491 0.3 1006309
21 may, sat
sat2123:00+23se3550100 0.6 1007155
02:00+22se3452100 0.0 1006129
05:00+20se36540 0.1 1007153
08:00+23s58411 0.5 1008401
11:00+29ssw44260 0.6 10081095
14:00+32wsw35195 0.0 10063585
17:00+32wsw44130 0.0 10063151
20:00+28sse22171 0.0 100618
22 may, sun
sun2223:00+24ese342436 0.0 100594
02:00+23e34283 0.0 100393
05:00+22nnw012914 0.0 100220
08:00+24ssw5741100 0.0 1002581
11:00+27sw5634100 0.0 10031481
14:00+24nw6639100 0.4 10061332
17:00+20ene3357100 0.9 1009680
20:00+20wnw2259100 0.2 1011606